Weather History for Williams, AZ

Change the Weather History Date:

Friday, November 9, 2012

  Actual Average (KFLG) Record (KFLG)
Temperature  
Mean Temperature 40 °F 39 °F  
Max Temperature 48 °F 53 °F 71 °F (1973)
Min Temperature 30 °F 25 °F 3 °F (1898)
Degree Days  
Heating Degree Days 25 26  
Month to date heating degree days 222  
Since 1 July heating degree days 1105  
Cooling Degree Days 0 0  
Month to date cooling degree days 0  
Year to date cooling degree days 117  
Moisture  
Dew Point 36 °F    
Average Humidity 78    
Maximum Humidity 93    
Minimum Humidity 66    
Precipitation  
Precipitation 0.36 in 0.05 in 0.87 in (1915)
Month to date precipitation 0.51  
Year to date precipitation 18.74  
Snow  
Snow 0.00 in 0.30 in 2.50 in (2008)
Month to date snowfall 2.0  
Since 1 July snowfall 3.5  
Snow Depth -    
Sea Level Pressure  
Sea Level Pressure 29.90 in    
Wind  
Wind Speed 19 mph (SSW)    
Max Wind Speed 32 mph    
Max Gust Speed 44 mph    
Visibility 8 miles    
Events      
T = Trace of Precipitation, MM = Missing Value Source: NWS Daily Summary

Daily Weather History Graph

Daily Weather History Graph

Search for Another Location

Airport:

Trip Planner

Search our weather history database for the weather conditions in past years. The results will help you decide how hot, cold, wet, or windy it might be!

Date:

Astronomy

Nov. 09, 2012 Rise Set
Actual Time 6:58 AM MST 5:26 PM MST
Civil Twilight 6:31 AM MST 5:53 PM MST
Nautical Twilight 6:01 AM MST 6:23 PM MST
Astronomical Twilight 5:31 AM MST 6:53 PM MST
Moon 2:11 AM MST (11/9) 2:33 PM MST (11/9)
Length of Visible Light 11h 21m
Length of Day
10h 27m
Waning Crescent, 22% of the Moon is Illuminated
Nov 9
Waning Crescent
Nov 13
New
Nov 20
First Quarter
Nov 28
Full
Dec 6
Last Quarter

Hourly Weather History & Observations

Time (MST) Temp. Windchill Dew Point Humidity Pressure Visibility Wind Dir Wind Speed Gust Speed Precip Events Conditions
12:15 AM 46.4 °F 39.5 °F 39.2 °F 76% 30.03 in 7.0 mi South 17.3 mph 26.5 mph N/A   Partly Cloudy
12:35 AM 44.6 °F 37.4 °F 37.4 °F 76% 30.02 in 10.0 mi South 16.1 mph 24.2 mph N/A   Partly Cloudy
12:55 AM 44.6 °F 36.6 °F 37.4 °F 76% 30.01 in 7.0 mi South 19.6 mph 32.2 mph N/A   Scattered Clouds
1:15 AM 44.6 °F 37.8 °F 35.6 °F 71% 30.00 in 9.0 mi South 15.0 mph 24.2 mph N/A   Partly Cloudy
1:35 AM 46.4 °F 39.8 °F 35.6 °F 66% 30.00 in 10.0 mi South 16.1 mph 29.9 mph N/A   Clear
1:55 AM 46.4 °F 39.8 °F 35.6 °F 66% 29.99 in 10.0 mi South 16.1 mph 27.6 mph N/A   Clear
2:15 AM 46.4 °F 40.4 °F 35.6 °F 66% 29.99 in 10.0 mi South 13.8 mph 27.6 mph N/A   Partly Cloudy
2:35 AM 46.4 °F 38.7 °F 35.6 °F 66% 29.98 in 10.0 mi South 20.7 mph 28.8 mph N/A   Scattered Clouds
2:55 AM 46.4 °F 38.7 °F 37.4 °F 71% 29.98 in 10.0 mi South 20.7 mph 27.6 mph N/A   Partly Cloudy
3:15 AM 46.4 °F 38.7 °F 37.4 °F 71% 29.97 in 10.0 mi South 20.7 mph 33.4 mph N/A   Clear
3:35 AM 46.4 °F 38.3 °F 37.4 °F 71% 29.96 in 10.0 mi South 23.0 mph 31.1 mph N/A   Clear
3:55 AM 46.4 °F 39.0 °F 37.4 °F 71% 29.95 in 10.0 mi South 19.6 mph 31.1 mph N/A   Clear
4:15 AM 46.4 °F 38.7 °F 37.4 °F 71% 29.94 in 10.0 mi South 20.7 mph 34.5 mph N/A   Partly Cloudy
4:35 AM 46.4 °F 38.1 °F 35.6 °F 66% 29.94 in 10.0 mi South 24.2 mph 31.1 mph N/A   Clear
4:55 AM 46.4 °F 38.5 °F 35.6 °F 66% 29.93 in 10.0 mi South 21.9 mph 35.7 mph N/A   Clear
5:15 AM 46.4 °F 38.5 °F 37.4 °F 71% 29.93 in 10.0 mi South 21.9 mph 31.1 mph N/A   Clear
5:35 AM 46.4 °F 37.9 °F 37.4 °F 71% 29.92 in 10.0 mi South 25.3 mph 34.5 mph N/A   Clear
5:55 AM 46.4 °F 38.1 °F 37.4 °F 71% 29.92 in 10.0 mi South 24.2 mph 35.7 mph N/A   Clear
6:35 AM 46.4 °F 37.9 °F 39.2 °F 76% 29.91 in 10.0 mi South 25.3 mph 35.7 mph N/A   Mostly Cloudy
6:55 AM 46.4 °F 36.9 °F 39.2 °F 76% 29.91 in 10.0 mi South 32.2 mph 43.7 mph N/A   Scattered Clouds
7:15 AM 46.4 °F 37.7 °F 39.2 °F 76% 29.91 in 10.0 mi South 26.5 mph 34.5 mph N/A   Mostly Cloudy
7:35 AM 48.2 °F - 37.4 °F 66% 29.91 in 10.0 mi South 20.7 mph 38.0 mph N/A   Mostly Cloudy
7:55 AM 48.2 °F - 37.4 °F 66% 29.92 in 10.0 mi South 17.3 mph 31.1 mph N/A   Mostly Cloudy
8:15 AM 48.2 °F - 37.4 °F 66% 29.93 in 10.0 mi South 27.6 mph 35.7 mph N/A   Mostly Cloudy
8:35 AM 48.2 °F - 37.4 °F 66% 29.93 in 10.0 mi South 27.6 mph 33.4 mph N/A   Mostly Cloudy
8:55 AM 48.2 °F - 37.4 °F 66% 29.93 in 10.0 mi South 21.9 mph 33.4 mph N/A   Mostly Cloudy
9:15 AM 48.2 °F - 37.4 °F 66% 29.94 in 10.0 mi South 24.2 mph 33.4 mph N/A   Mostly Cloudy
9:55 AM 46.4 °F 37.9 °F 39.2 °F 76% 29.92 in 8.0 mi SSE 25.3 mph 32.2 mph N/A   Mostly Cloudy
10:15 AM 44.6 °F 37.4 °F 39.2 °F 81% 29.94 in 2.5 mi South 16.1 mph 26.5 mph 0.02 in   Overcast
10:35 AM 42.8 °F 34.0 °F 39.2 °F 87% 29.95 in 3.0 mi South 20.7 mph 27.6 mph 0.07 in   Mostly Cloudy
10:55 AM 46.4 °F 39.0 °F 41.0 °F 81% 29.93 in 10.0 mi SSW 19.6 mph 28.8 mph 0.07 in   Mostly Cloudy
11:15 AM 46.4 °F 38.5 °F 39.2 °F 76% 29.93 in 10.0 mi South 21.9 mph 35.7 mph N/A   Mostly Cloudy
11:35 AM 48.2 °F - 37.4 °F 66% 29.92 in 10.0 mi South 28.8 mph 35.7 mph N/A   Mostly Cloudy
11:55 AM 46.4 °F 38.1 °F 37.4 °F 71% 29.91 in 10.0 mi South 24.2 mph 39.1 mph N/A   Mostly Cloudy
12:15 PM 46.4 °F 37.7 °F 35.6 °F 66% 29.90 in 7.0 mi South 26.5 mph 38.0 mph N/A   Overcast
12:35 PM 46.4 °F 38.3 °F 35.6 °F 66% 29.89 in 9.0 mi South 23.0 mph 32.2 mph N/A   Overcast
12:55 PM 42.8 °F 34.5 °F 37.4 °F 81% 29.88 in 4.0 mi SSW 18.4 mph 28.8 mph 0.02 in   Overcast
1:15 PM 41.0 °F 32.8 °F 37.4 °F 87% 29.87 in 3.0 mi SSW 16.1 mph 29.9 mph 0.01 in   Overcast
1:35 PM 44.6 °F 37.2 °F 39.2 °F 81% 29.87 in 7.0 mi South 17.3 mph 34.5 mph 0.03 in   Overcast
1:55 PM 44.6 °F 35.9 °F 39.2 °F 81% 29.86 in 8.0 mi SSW 23.0 mph 29.9 mph 0.03 in   Overcast
2:15 PM 44.6 °F 36.9 °F 35.6 °F 71% 29.86 in 10.0 mi South 18.4 mph 32.2 mph N/A   Mostly Cloudy
2:35 PM 44.6 °F 37.2 °F 35.6 °F 71% 29.86 in 10.0 mi SSW 17.3 mph 29.9 mph N/A   Mostly Cloudy
2:55 PM 44.6 °F 37.4 °F 35.6 °F 71% 29.86 in 8.0 mi SSW 16.1 mph 27.6 mph N/A   Mostly Cloudy
3:15 PM 41.0 °F 33.5 °F 37.4 °F 87% 29.85 in 7.0 mi SSW 13.8 mph 23.0 mph 0.02 in   Overcast
3:35 PM 41.0 °F 33.5 °F 37.4 °F 87% 29.85 in 8.0 mi SSW 13.8 mph 23.0 mph 0.03 in   Overcast
3:55 PM 42.8 °F 34.5 °F 35.6 °F 76% 29.84 in 10.0 mi SSW 18.4 mph 26.5 mph 0.03 in   Mostly Cloudy
4:15 PM 42.8 °F 35.4 °F 35.6 °F 76% 29.83 in 10.0 mi SSW 15.0 mph 26.5 mph N/A   Mostly Cloudy
4:35 PM 42.8 °F 34.3 °F 35.6 °F 76% 29.83 in 9.0 mi South 19.6 mph 26.5 mph 0.01 in   Mostly Cloudy
4:55 PM 41.0 °F 31.6 °F 37.4 °F 87% 29.83 in 9.0 mi SW 20.7 mph 32.2 mph 0.01 in   Mostly Cloudy
5:15 PM 41.0 °F 32.5 °F 37.4 °F 87% 29.82 in 10.0 mi SSW 17.3 mph 28.8 mph N/A   Mostly Cloudy
5:35 PM 41.0 °F 32.5 °F 37.4 °F 87% 29.82 in 7.0 mi SSW 17.3 mph 24.2 mph N/A   Overcast
5:55 PM 39.2 °F 30.8 °F 37.4 °F 93% 29.82 in 2.5 mi SSW 15.0 mph 27.6 mph 0.06 in   Overcast
6:15 PM 39.2 °F 30.5 °F 37.4 °F 93% 29.83 in 5.0 mi SW 16.1 mph 33.4 mph 0.02 in   Overcast
6:35 PM 39.2 °F 29.0 °F 35.6 °F 87% 29.83 in 3.0 mi SSW 21.9 mph 29.9 mph 0.06 in   Overcast
6:55 PM 39.2 °F 30.2 °F 37.4 °F 93% 29.83 in 10.0 mi SSW 17.3 mph 28.8 mph 0.07 in   Overcast
7:15 PM 39.2 °F 29.3 °F 35.6 °F 87% 29.83 in 5.0 mi SSW 20.7 mph 29.9 mph 0.01 in   Overcast
7:35 PM 37.4 °F 26.9 °F 35.6 °F 93% 29.83 in 3.0 mi SW 20.7 mph 28.8 mph 0.02 in   Overcast
7:55 PM 37.4 °F 27.2 °F 35.6 °F 93% 29.83 in 10.0 mi SSW 19.6 mph 29.9 mph 0.03 in   Overcast
8:15 PM 35.6 °F 26.2 °F 33.8 °F 93% 29.84 in 2.0 mi SW 15.0 mph 25.3 mph 0.03 in   Overcast
8:35 PM 35.6 °F 24.0 °F 32.0 °F 87% 29.84 in 10.0 mi SW 23.0 mph 29.9 mph 0.04 in   Overcast
8:55 PM 35.6 °F 25.2 °F 32.0 °F 87% 29.85 in 9.0 mi SW 18.4 mph 26.5 mph 0.04 in   Unknown
9:15 PM 35.6 °F 25.2 °F 32.0 °F 87% 29.85 in 10.0 mi SW 18.4 mph 29.9 mph N/A   Unknown
9:35 PM 35.6 °F 25.9 °F 32.0 °F 87% 29.85 in 10.0 mi SW 16.1 mph 26.5 mph N/A   Overcast
9:55 PM 33.8 °F 25.3 °F 32.0 °F 93% 29.84 in 10.0 mi South 11.5 mph 16.1 mph N/A   Overcast
10:15 PM 33.8 °F 25.8 °F 32.0 °F 93% 29.85 in 10.0 mi SSW 10.4 mph - N/A   Overcast
10:35 PM 33.8 °F 24.8 °F 30.2 °F 87% 29.85 in 10.0 mi SSW 12.7 mph 20.7 mph N/A   Overcast
10:55 PM 32.0 °F 23.0 °F 30.2 °F 93% 29.84 in 10.0 mi SW 11.5 mph - N/A   Overcast
11:15 PM 32.0 °F 22.5 °F 28.4 °F 87% 29.84 in 5.0 mi West 12.7 mph - N/A   Overcast
11:35 PM 32.0 °F 24.2 °F 28.4 °F 87% 29.84 in 4.0 mi West 9.2 mph - N/A   Overcast
11:55 PM 30.2 °F 21.3 °F 28.4 °F 93% 29.84 in 2.5 mi West 10.4 mph 17.3 mph N/A   Overcast